Вернуться в каталог

SL-8 DEB

АктивенLEO
NORAD 21252·DEBRIS·🇷🇺 Russia

Запущен Feb 12, 1991 с Plesetsk Cosmodrome

Loading…

Ближайшие Пролёты (ближайшие 24 часа)

TLE

СвежийSource: Space-Track

Эпоха: Sep 14, 2026, 08:00 UTC

1 21252U 91009BK  26257.33398640 -.00000023  00000-0 -71248-4 0  9992
2 21252  74.1087   5.0052 0124258 265.9718 121.6517 12.24993509587921

Отслеживайте SL-8 DEB в реальном времени с AllMySat

Download on the App Store